[[{"header":{"parameterUnit":"m.s-1","parameterCategory":1,"la1":30.2991,"la2":30.254,"lo1":-89.0895,"lo2":-89.0444,"dy":0.0017,"dx":0.0017,"nx":28,"ny":28,"refTime":"2023-07-27T03:00:00:Z","depth":0,"parameterNumber":2,"parameterNumberName":"U-component_of_WINDS"},"data":[0,0,0,0,0,0,0,0,0,0,0,0,0,0,0,0,0,0,0,0,0,0,0,0,0,0,0,0,0,0,0,0,0,0,0,0,0,0,0,0,0,0,0,0,0,0,0,0,0,0,0,0,0,0,0,0,0,0,-0.2363,-0.2363,0,-0.2318,-0.2318,-0.2317,-0.2283,-0.2282,-0.2282,-0.2282,-0.2235,-0.2234,-0.2234,0,0,0,0,0,0,0,0,0,0,0,0,0,-0.2419,-0.2418,-0.2363,-0.2363,-0.2362,-0.2318,-0.2318,-0.2317,-0.2283,-0.2282,-0.2282,-0.2282,-0.2236,-0.2235,-0.2233,0,0,0,0,0,0,0,0,0,0,0,0,0,-0.2387,-0.2418,-0.2363,-0.234,-0.2337,-0.2319,-0.2318,-0.2317,-0.2283,-0.2282,-0.2282,-0.2282,-0.2236,-0.2235,-0.2233,-0.2234,0,0,-0.2229,-0.2228,0,0,0,0,0,0,0,0,-0.2389,-0.2385,-0.2344,-0.2341,-0.2338,-0.2306,-0.232,-0.2289,-0.2283,-0.2304,-0.2282,-0.2281,-0.2259,-0.2256,-0.2248,-0.2232,-0.223,-0.2229,-0.2228,-0.2227,-0.2227,0,0,0,0,0,0,0,-0.2391,-0.2386,-0.2345,-0.2343,-0.234,-0.2331,-0.2326,-0.2314,-0.2285,-0.2302,-0.2299,-0.2294,-0.2258,-0.225,-0.2247,-0.223,-0.2229,-0.2228,-0.2227,-0.2226,-0.2213,-0.2213,0,0,0,0,0,0,-0.2397,-0.2389,-0.2347,-0.2344,-0.2363,-0.2331,-0.2325,-0.2317,-0.2285,-0.2279,-0.2295,-0.2293,-0.2253,-0.2249,-0.2245,-0.2245,-0.2227,-0.2226,-0.2225,-0.2212,-0.2213,-0.2213,0,0,0,0,0,0,-0.2398,-0.2393,-0.2349,-0.2366,-0.2359,-0.233,-0.2321,-0.2316,-0.2308,-0.2279,-0.2274,-0.2292,-0.2252,-0.2247,-0.2238,-0.2243,-0.2225,-0.2224,-0.2212,-0.2212,-0.2213,-0.2244,0,0,0,0,0,0,-0.24,-0.2394,-0.2394,-0.2366,-0.2358,-0.2342,-0.2322,-0.2316,-0.2306,-0.2303,-0.2276,-0.2271,-0.2251,-0.224,-0.2236,-0.2241,-0.2223,-0.2211,-0.2212,-0.2213,-0.2243,-0.2246,-0.2249,0,0,0,0,0,-0.2402,-0.2404,-0.2394,-0.2389,-0.2358,-0.2342,-0.2338,-0.2316,-0.2307,-0.2307,-0.2288,-0.2272,-0.2243,-0.2239,-0.2235,-0.2239,-0.2211,-0.2212,-0.2213,-0.2241,-0.2245,-0.2249,0,0,0,0,0,0,-0.2434,-0.24,-0.2389,-0.2382,-0.2365,-0.2336,-0.2335,-0.2321,-0.2306,-0.2304,-0.2277,-0.2271,-0.2264,-0.225,-0.2247,-0.2239,-0.2225,-0.2225,-0.2248,-0.2251,-0.2254,-0.2258,-0.2222,0,0,0,0,0,-0.244,-0.243,-0.2401,-0.2398,-0.239,-0.2365,-0.2357,-0.2341,-0.2323,-0.2315,-0.2296,-0.2279,-0.2266,-0.2258,-0.2244,-0.224,-0.2234,-0.2241,-0.2244,-0.2247,-0.2247,-0.2245,-0.2248,-0.2217,-0.2217,-0.2217,0,0,-0.2453,-0.2433,-0.2428,-0.2404,-0.2389,-0.238,-0.2359,-0.2349,-0.2342,-0.2314,-0.2304,-0.2289,-0.2268,-0.2261,-0.2257,-0.225,-0.2255,-0.2248,-0.2251,-0.225,-0.2247,-0.225,-0.2252,-0.2218,-0.2218,-0.2217,0,0,-0.2471,-0.2455,-0.2451,-0.2437,-0.2415,-0.2398,-0.2397,-0.237,-0.236,-0.2349,-0.2328,-0.2319,-0.2297,-0.2283,-0.2273,-0.2288,-0.2272,-0.2284,-0.23,-0.2298,-0.23,-0.2302,-0.2308,-0.231,-0.2284,-0.2285,-0.2285,0,-0.2489,-0.2474,-0.2451,-0.2443,-0.2433,-0.2407,-0.2403,-0.2391,-0.2365,-0.2359,-0.2351,-0.2324,-0.2308,-0.2298,-0.2302,-0.2294,-0.2292,-0.2287,-0.2302,-0.2304,-0.2305,-0.231,-0.2312,-0.2286,-0.2286,-0.2286,-0.2286,0,-0.2498,-0.2488,-0.2487,-0.2464,-0.2454,-0.2448,-0.2424,-0.2417,-0.2403,-0.2387,-0.2377,-0.2356,-0.2339,-0.2335,-0.2321,-0.2324,-0.232,-0.2307,-0.2293,-0.231,-0.2315,-0.2316,-0.2289,-0.2288,-0.2287,-0.2287,0,0,-0.2535,-0.2499,-0.2499,-0.2489,-0.2463,-0.2455,-0.2448,-0.2431,-0.2426,-0.2409,-0.2403,-0.2386,-0.2374,-0.2363,-0.2347,-0.2345,-0.2358,-0.2333,-0.2332,-0.2339,-0.2361,-0.2371,-0.2373,-0.2348,-0.2348,-0.2348,-0.2363,0,-0.2549,-0.2536,-0.2515,-0.2508,-0.2499,-0.2475,-0.2469,-0.2453,-0.2438,-0.2428,-0.2411,-0.2399,-0.2385,-0.2378,-0.2375,-0.2357,-0.2363,-0.2356,-0.2342,-0.2342,-0.2348,-0.2375,-0.2385,-0.24,-0.2364,-0.2365,-0.2365,0,-0.2564,-0.255,-0.2542,-0.2518,-0.2513,-0.2509,-0.2492,-0.2482,-0.2464,-0.2453,-0.2441,-0.2424,-0.2415,-0.2402,-0.2391,-0.2387,-0.238,-0.2371,-0.2371,-0.2368,-0.2354,-0.2374,-0.2404,-0.2406,-0.2367,-0.2367,-0.2367,0,-0.2592,-0.2571,-0.2564,-0.2556,-0.2527,-0.2524,-0.2512,-0.2493,-0.2484,-0.247,-0.2464,-0.2449,-0.244,-0.2429,-0.2408,-0.24,-0.2399,-0.2384,-0.239,-0.239,-0.239,-0.2391,-0.242,-0.2386,-0.2386,-0.2386,-0.2386,0,-0.2611,-0.2607,-0.2576,-0.2572,-0.2568,-0.2544,-0.254,-0.2526,-0.2509,-0.2502,-0.248,-0.2474,-0.2446,-0.2437,-0.242,-0.2413,-0.241,-0.2401,-0.2396,-0.2403,-0.2404,-0.2398,-0.2397,-0.2386,-0.2386,-0.2386,-0.2386,0,-0.2641,-0.262,-0.2611,-0.2585,-0.2579,-0.2577,-0.2554,-0.2549,-0.2533,-0.2524,-0.2521,-0.2496,-0.2484,-0.2462,-0.2443,-0.2432,-0.2428,-0.2421,-0.2435,-0.2432,-0.244,-0.2439,-0.2466,-0.2468,-0.2433,-0.2433,-0.2434,0,-0.2655,-0.2652,-0.2626,-0.2619,-0.2608,-0.2598,-0.2589,-0.2566,-0.2558,-0.2537,-0.2535,-0.2521,-0.2508,-0.249,-0.247,-0.2456,-0.2448,-0.2458,-0.2445,-0.2452,-0.2448,-0.2449,-0.2449,-0.2461,-0.2461,-0.2462,-0.2462,0,-0.2681,-0.2671,-0.2659,-0.2644,-0.2635,-0.2622,-0.2608,-0.2604,-0.2577,-0.2569,-0.2557,-0.2547,-0.2529,-0.2515,-0.2498,-0.2486,-0.247,-0.2466,-0.2467,-0.2474,-0.2482,-0.2478,-0.2443,-0.2466,-0.2465,-0.2465,-0.2465,-0.2465,-0.2703,-0.27,-0.2681,-0.2669,-0.2656,-0.2644,-0.2638,-0.2622,-0.2611,-0.2594,-0.2581,-0.257,-0.2551,-0.2527,-0.2516,-0.2506,-0.2499,-0.25,-0.25,-0.2501,-0.2503,-0.2484,-0.2503,-0.2503,-0.2503,-0.2503,-0.2503,0,-0.2729,-0.2716,-0.2705,-0.2686,-0.2677,-0.2663,-0.2647,-0.264,-0.2631,-0.2615,-0.2604,-0.259,-0.2577,-0.2556,-0.2542,-0.2538,-0.2531,-0.2535,-0.2535,-0.2533,-0.2511,-0.2512,-0.2542,-0.2542,-0.2542,-0.2542,-0.2542,-0.2542,-0.2741,-0.2735,-0.2722,-0.2709,-0.2696,-0.2685,-0.2677,-0.2666,-0.2653,-0.2639,-0.2628,-0.2615,-0.2597,-0.2581,-0.2569,-0.2563,-0.2559,-0.2566,-0.2558,-0.2538,-0.2534,-0.2531,-0.2532,-0.2565,-0.2565,-0.2581,-0.2581,-0.2581]},{"header":{"parameterUnit":"m.s-1","parameterCategory":1,"la1":30.2991,"la2":30.254,"lo1":-89.0895,"lo2":-89.0444,"dy":0.0017,"dx":0.0017,"nx":28,"ny":28,"refTime":"2023-07-27T03:00:00:Z","depth":0,"parameterNumber":3,"parameterNumberName":"V-component_of_WINDS"},"data":[0,0,0,0,0,0,0,0,0,0,0,0,0,0,0,0,0,0,0,0,0,0,0,0,0,0,0,0,0,0,0,0,0,0,0,0,0,0,0,0,0,0,0,0,0,0,0,0,0,0,0,0,0,0,0,0,0,0,3.4373,3.4372,0,3.4338,3.4337,3.4337,3.4275,3.4274,3.4272,3.4271,3.4236,3.4237,3.4237,0,0,0,0,0,0,0,0,0,0,0,0,0,3.4387,3.4387,3.4373,3.4372,3.4372,3.4338,3.4337,3.4337,3.4275,3.4274,3.4272,3.4271,3.4236,3.4237,3.4237,0,0,0,0,0,0,0,0,0,0,0,0,0,3.437,3.4387,3.4373,3.4337,3.4333,3.4338,3.4337,3.4336,3.4275,3.4274,3.4272,3.427,3.4236,3.4237,3.4237,3.4274,0,0,3.4238,3.4238,0,0,0,0,0,0,0,0,3.4371,3.4369,3.4343,3.4339,3.4335,3.4309,3.4329,3.4315,3.4276,3.4297,3.4271,3.4269,3.4262,3.426,3.4257,3.4272,3.427,3.4238,3.4238,3.4238,3.4238,0,0,0,0,0,0,0,3.4372,3.437,3.4359,3.4342,3.4338,3.4323,3.4318,3.4326,3.429,3.4295,3.4291,3.4287,3.426,3.4257,3.4256,3.427,3.4238,3.4238,3.4238,3.4238,3.4312,3.4314,0,0,0,0,0,0,3.4378,3.4372,3.436,3.4358,3.4349,3.4324,3.4319,3.4319,3.429,3.4284,3.4289,3.4285,3.4258,3.4256,3.4255,3.4294,3.4238,3.4238,3.4238,3.431,3.4312,3.4314,0,0,0,0,0,0,3.4379,3.4378,3.4361,3.4363,3.436,3.4326,3.4326,3.4319,3.4317,3.4285,3.4278,3.4293,3.4256,3.4254,3.4269,3.4292,3.4238,3.4238,3.4308,3.4311,3.4313,3.4375,0,0,0,0,0,0,3.4379,3.4378,3.4392,3.4364,3.436,3.4376,3.4328,3.432,3.4317,3.4311,3.4287,3.4281,3.4255,3.4269,3.4269,3.4292,3.4239,3.4306,3.4309,3.4312,3.4371,3.438,3.4388,0,0,0,0,0,3.438,3.4411,3.4393,3.4392,3.4376,3.4378,3.4375,3.4344,3.4319,3.4332,3.4312,3.4282,3.429,3.4271,3.4271,3.4294,3.4304,3.4308,3.4312,3.4367,3.4378,3.4387,0,0,0,0,0,0,3.4442,3.4407,3.4386,3.4409,3.4397,3.4367,3.4383,3.4357,3.4351,3.4346,3.4308,3.4303,3.4322,3.431,3.4289,3.4327,3.4292,3.4297,3.4334,3.4344,3.4353,3.4354,3.4239,0,0,0,0,0,3.4459,3.4463,3.4432,3.4455,3.445,3.4418,3.4417,3.4394,3.438,3.4374,3.4355,3.4343,3.4342,3.4343,3.4341,3.437,3.4363,3.4385,3.4394,3.4401,3.4404,3.4417,3.4426,3.4328,3.4328,3.4328,0,0,3.4493,3.4474,3.4478,3.4467,3.4454,3.4459,3.4414,3.4421,3.4424,3.4376,3.4388,3.4374,3.4357,3.4379,3.4387,3.4369,3.443,3.4406,3.4411,3.4411,3.4422,3.4432,3.444,3.4331,3.433,3.433,0,0,3.4556,3.4543,3.456,3.4549,3.4531,3.4509,3.4514,3.4488,3.4477,3.4488,3.4452,3.4456,3.4456,3.4446,3.4441,3.4501,3.4473,3.4502,3.4544,3.4557,3.4565,3.4571,3.4591,3.4599,3.4506,3.4506,3.4506,0,3.46,3.4606,3.4572,3.4581,3.4577,3.4534,3.4551,3.4542,3.4524,3.4522,3.4502,3.4501,3.4488,3.4506,3.452,3.4518,3.4521,3.4503,3.4566,3.4573,3.4578,3.4597,3.4605,3.4509,3.4509,3.4509,3.4508,0,3.466,3.4665,3.4681,3.4665,3.4663,3.4676,3.4644,3.4646,3.4624,3.4604,3.4617,3.4599,3.4592,3.4595,3.4573,3.461,3.4599,3.4573,3.4537,3.4592,3.4609,3.4616,3.4514,3.4513,3.4512,3.4511,0,0,3.4761,3.4726,3.4732,3.4724,3.4702,3.4704,3.4716,3.4709,3.4711,3.4701,3.4709,3.4711,3.4687,3.4681,3.4658,3.467,3.4717,3.4642,3.4641,3.4655,3.4755,3.4773,3.4782,3.4699,3.47,3.4701,3.4755,0,3.4818,3.4835,3.4805,3.4829,3.4832,3.4791,3.4801,3.4789,3.4771,3.4772,3.4753,3.4754,3.4723,3.4719,3.4729,3.4709,3.4736,3.4705,3.4705,3.4706,3.4709,3.4791,3.481,3.4862,3.4762,3.4763,3.4764,0,3.4887,3.4879,3.4904,3.4879,3.4879,3.4889,3.488,3.4881,3.4866,3.4852,3.4846,3.4819,3.4828,3.4795,3.4807,3.4787,3.4785,3.4775,3.4777,3.4774,3.4737,3.4789,3.4878,3.4885,3.4774,3.4773,3.4773,0,3.4955,3.4952,3.4966,3.496,3.4933,3.494,3.4929,3.4912,3.491,3.4902,3.49,3.4894,3.4891,3.4887,3.4858,3.4837,3.4874,3.4838,3.4862,3.4863,3.487,3.487,3.4958,3.4872,3.4872,3.4872,3.4872,0,3.5021,3.5037,3.4996,3.5004,3.5021,3.4987,3.5005,3.4989,3.4975,3.4979,3.4945,3.495,3.4913,3.4914,3.4893,3.4905,3.4904,3.4893,3.4887,3.4895,3.4896,3.4892,3.4887,3.4874,3.4874,3.4873,3.4873,0,3.51,3.5073,3.5085,3.5058,3.5052,3.5065,3.5042,3.5048,3.5029,3.5035,3.5035,3.5005,3.5004,3.4976,3.497,3.4955,3.4976,3.4964,3.4981,3.4977,3.5002,3.4999,3.509,3.5099,3.5009,3.501,3.501,0,3.5143,3.5154,3.5128,3.5129,3.5119,3.5121,3.5118,3.5086,3.5084,3.5068,3.5077,3.5073,3.5068,3.507,3.5047,3.5042,3.5028,3.5061,3.5027,3.5035,3.5027,3.5026,3.5026,3.5067,3.5068,3.5069,3.507,0,3.5222,3.5208,3.5205,3.5198,3.5196,3.5189,3.5179,3.5182,3.5146,3.5147,3.5145,3.5142,3.5135,3.5132,3.5123,3.5111,3.5085,3.5081,3.5086,3.5094,3.5102,3.5096,3.4998,3.5078,3.5078,3.5077,3.5076,3.5076,3.5282,3.529,3.5273,3.5271,3.5261,3.5253,3.5257,3.5239,3.5237,3.5229,3.5211,3.5212,3.5197,3.5182,3.5173,3.5174,3.5157,3.5165,3.5166,3.5168,3.5173,3.5104,3.5172,3.5172,3.5171,3.5171,3.5171,0,3.5358,3.5345,3.5344,3.5332,3.533,3.5306,3.5294,3.5295,3.5296,3.5284,3.5281,3.5279,3.5276,3.5253,3.5248,3.5252,3.524,3.5252,3.525,3.5248,3.5188,3.5184,3.5262,3.5262,3.5262,3.5262,3.5262,3.5262,3.5397,3.5408,3.5392,3.5398,3.5386,3.5387,3.5382,3.5375,3.5365,3.5364,3.5362,3.5347,3.5331,3.5323,3.5319,3.5313,3.5312,3.5327,3.5317,3.5261,3.5252,3.5244,3.5239,3.5328,3.5328,3.5376,3.5376,3.5377]}]]